AMX379 MMSD-MMMX

Flight info

Callsign AMX379
Flight time N/A
Altitude 39000
Route ILIGA1A ILIGA UT75 PVR UJ14 QET UT150 DARAN DARAN3B
Aircraft B738/M-SDE2E3FGHIRWXY/LB1

Departure

Time 2026-04-24 00:56
Airport Los Cabos International Airport (MMSD)

Arrival

Time N/A
Airport Mexico City Benito Juárez International Airport (MMMX)
Time Latitude Longitude Altitude Speed Heading
2026-04-24 00:39 23.16167 -109.71843 368 ft 0 kts 84°
2026-04-24 00:40 23.16166 -109.71843 368 ft 0 kts 84°
2026-04-24 00:48 23.16166 -109.71847 368 ft 2 kts 84°
2026-04-24 00:49 23.16165 -109.71863 368 ft 3 kts 82°
2026-04-24 00:49 23.16160 -109.71882 368 ft 3 kts 47°
2026-04-24 00:49 23.16146 -109.71891 369 ft 3 kts
2026-04-24 00:49 23.16130 -109.71891 367 ft 1 kts 354°
2026-04-24 00:50 23.16125 -109.71890 370 ft 2 kts 354°
2026-04-24 00:52 23.16155 -109.71893 371 ft 8 kts 354°
2026-04-24 00:53 23.16237 -109.71902 372 ft 15 kts 354°
2026-04-24 00:53 23.16286 -109.71923 375 ft 5 kts 285°
2026-04-24 00:53 23.16300 -109.71984 377 ft 12 kts 316°
2026-04-24 00:53 23.16383 -109.72004 382 ft 11 kts 354°
2026-04-24 00:54 23.16479 -109.72014 387 ft 14 kts 352°
2026-04-24 00:54 23.16553 -109.72037 390 ft 10 kts 309°
2026-04-24 00:54 23.16554 -109.72130 390 ft 13 kts 263°
2026-04-24 00:54 23.16545 -109.72205 391 ft 9 kts 262°
2026-04-24 00:55 23.16528 -109.72228 391 ft 4 kts 169°
2026-04-24 00:55 23.16455 -109.72217 389 ft 22 kts 174°
2026-04-24 00:55 23.16071 -109.72173 380 ft 90 kts 174°
2026-04-24 00:55 23.15238 -109.72077 355 ft 149 kts 173°
2026-04-24 00:56 23.14087 -109.71956 661 ft 171 kts 171°
2026-04-24 00:56 23.12901 -109.71800 1433 ft 173 kts 171°
2026-04-24 00:56 23.11673 -109.71563 2058 ft 182 kts 165°
2026-04-24 00:56 23.10419 -109.71109 2527 ft 203 kts 158°
2026-04-24 00:57 23.09111 -109.70350 2809 ft 223 kts 147°
2026-04-24 00:57 23.07839 -109.69264 3089 ft 242 kts 137°
2026-04-24 00:57 23.05730 -109.66020 3775 ft 279 kts 121°
2026-04-24 00:58 23.04748 -109.64222 4638 ft 279 kts 121°
2026-04-24 00:58 23.03721 -109.62411 5324 ft 283 kts 122°
2026-04-24 00:58 23.02670 -109.60610 6107 ft 284 kts 123°
2026-04-24 00:58 23.01600 -109.58813 6745 ft 289 kts 124°
2026-04-24 00:59 23.00496 -109.56963 7359 ft 294 kts 124°
2026-04-24 00:59 22.99377 -109.55086 8009 ft 298 kts 124°
2026-04-24 00:59 22.98238 -109.53183 8658 ft 302 kts 125°
2026-04-24 00:59 22.97075 -109.51255 9291 ft 307 kts 127°
2026-04-24 01:00 22.95820 -109.49363 9916 ft 311 kts 129°
2026-04-24 01:00 22.94497 -109.47470 10377 ft 321 kts 130°
2026-04-24 01:00 22.93115 -109.45512 10793 ft 331 kts 129°
2026-04-24 01:00 22.91714 -109.43518 11405 ft 334 kts 129°
2026-04-24 01:01 22.90306 -109.41501 12079 ft 336 kts 128°
2026-04-24 01:01 22.88896 -109.39475 12741 ft 338 kts 128°
2026-04-24 01:01 22.87476 -109.37428 13391 ft 341 kts 128°
2026-04-24 01:01 22.86043 -109.35359 14004 ft 345 kts 128°
2026-04-24 01:02 22.84613 -109.33294 14535 ft 350 kts 127°
2026-04-24 01:02 22.83137 -109.31162 15139 ft 352 kts 127°
2026-04-24 01:02 22.81659 -109.29028 15746 ft 356 kts 127°
2026-04-24 01:02 22.80164 -109.26869 16309 ft 360 kts 127°
2026-04-24 01:03 22.78652 -109.24688 16920 ft 363 kts 127°
2026-04-24 01:03 22.77147 -109.22516 17506 ft 367 kts 127°
2026-04-24 01:03 22.75587 -109.20266 18085 ft 371 kts 126°
2026-04-24 01:03 22.74048 -109.18047 18584 ft 375 kts 127°
2026-04-24 01:04 22.72476 -109.15781 19087 ft 378 kts 127°
2026-04-24 01:04 22.70886 -109.13493 19593 ft 381 kts 127°
2026-04-24 01:04 22.69284 -109.11189 20099 ft 385 kts 128°
2026-04-24 01:04 22.67619 -109.08890 20521 ft 391 kts 129°
2026-04-24 01:05 22.65887 -109.06580 20892 ft 398 kts 130°
2026-04-24 01:05 22.64716 -109.05033 21187 ft 401 kts 130°
2026-04-24 01:05 22.62944 -109.02697 21752 ft 402 kts 130°
2026-04-24 01:05 22.61169 -109.00349 22276 ft 404 kts 130°
2026-04-24 01:06 22.59389 -108.97987 22828 ft 405 kts 130°
2026-04-24 01:06 22.57612 -108.95622 23387 ft 406 kts 130°
2026-04-24 01:06 22.55828 -108.93245 23844 ft 408 kts 130°
2026-04-24 01:06 22.54038 -108.90859 24263 ft 410 kts 130°
2026-04-24 01:07 22.52233 -108.88455 24680 ft 412 kts 130°
2026-04-24 01:07 22.50421 -108.86041 25091 ft 415 kts 131°
2026-04-24 01:07 22.48598 -108.83613 25490 ft 417 kts 131°
2026-04-24 01:07 22.46757 -108.81165 25886 ft 420 kts 131°
2026-04-24 01:08 22.44906 -108.78702 26265 ft 423 kts 131°
2026-04-24 01:08 22.43039 -108.76220 26546 ft 429 kts 131°
2026-04-24 01:08 22.41137 -108.73692 26767 ft 436 kts 131°
2026-04-24 01:08 22.39215 -108.71139 27146 ft 438 kts 131°
2026-04-24 01:09 22.37287 -108.68576 27535 ft 440 kts 130°
2026-04-24 01:09 22.35545 -108.65899 27931 ft 444 kts 121°
2026-04-24 01:09 22.34144 -108.62916 28345 ft 446 kts 117°
2026-04-24 01:09 22.32815 -108.59868 28608 ft 451 kts 116°
2026-04-24 01:10 22.31046 -108.55737 29032 ft 455 kts 116°
2026-04-24 01:10 22.30164 -108.53684 29283 ft 456 kts 116°
2026-04-24 01:10 22.28822 -108.50579 29646 ft 458 kts 117°
2026-04-24 01:10 22.27459 -108.47454 29940 ft 461 kts 117°
2026-04-24 01:11 22.26080 -108.44317 30198 ft 464 kts 117°
2026-04-24 01:11 22.24689 -108.41166 30498 ft 465 kts 117°
2026-04-24 01:11 22.23296 -108.38019 30837 ft 465 kts 117°
2026-04-24 01:11 22.21899 -108.34868 31164 ft 466 kts 117°
2026-04-24 01:12 22.20498 -108.31710 31470 ft 467 kts 117°
2026-04-24 01:12 22.19090 -108.28539 31732 ft 469 kts 117°
2026-04-24 01:12 22.17680 -108.25365 32008 ft 470 kts 117°
2026-04-24 01:12 22.16262 -108.22173 32257 ft 472 kts 117°
2026-04-24 01:13 22.14839 -108.18974 32503 ft 474 kts 118°
2026-04-24 01:13 22.13408 -108.15757 32740 ft 476 kts 118°
2026-04-24 01:13 22.11991 -108.12573 32976 ft 478 kts 118°
2026-04-24 01:13 22.10547 -108.09332 33208 ft 479 kts 118°
2026-04-24 01:14 22.09103 -108.06090 33439 ft 481 kts 118°
2026-04-24 01:14 22.07650 -108.02833 33677 ft 482 kts 118°
2026-04-24 01:14 22.06228 -107.99645 34008 ft 480 kts 118°
2026-04-24 01:14 22.04779 -107.96398 34201 ft 482 kts 118°
2026-04-24 01:15 22.03324 -107.93143 34365 ft 483 kts 118°
2026-04-24 01:15 22.01858 -107.89864 34514 ft 486 kts 118°
2026-04-24 01:15 22.00388 -107.86578 34678 ft 487 kts 118°
2026-04-24 01:15 21.98933 -107.83330 34850 ft 488 kts 118°
2026-04-24 01:16 21.97456 -107.80031 35038 ft 489 kts 118°
2026-04-24 01:16 21.95972 -107.76722 35278 ft 489 kts 118°
2026-04-24 01:16 21.94496 -107.73430 35533 ft 488 kts 118°
2026-04-24 01:16 21.93019 -107.70139 35728 ft 488 kts 118°
2026-04-24 01:17 21.91539 -107.66842 35931 ft 488 kts 118°
2026-04-24 01:17 21.90062 -107.63556 36177 ft 487 kts 117°
2026-04-24 01:17 21.88587 -107.60276 36433 ft 486 kts 117°
2026-04-24 01:17 21.87111 -107.56997 36664 ft 485 kts 117°
2026-04-24 01:18 21.85640 -107.53730 36845 ft 485 kts 117°
2026-04-24 01:18 21.82676 -107.47156 36912 ft 490 kts 117°
2026-04-24 01:19 21.79712 -107.40589 36923 ft 491 kts 117°
2026-04-24 01:19 21.76723 -107.33976 36924 ft 491 kts 117°
2026-04-24 01:20 21.73736 -107.27373 36927 ft 490 kts 117°
2026-04-24 01:20 21.70749 -107.20781 36926 ft 490 kts 117°
2026-04-24 01:21 21.67753 -107.14177 36925 ft 490 kts 117°
2026-04-24 01:21 21.64780 -107.07632 36927 ft 490 kts 117°
2026-04-24 01:22 21.61789 -107.01057 36920 ft 490 kts 117°
2026-04-24 01:22 21.58836 -106.94572 36925 ft 490 kts 117°
2026-04-24 01:23 21.55854 -106.88032 36927 ft 490 kts 117°
2026-04-24 01:23 21.52856 -106.81464 36925 ft 490 kts 117°
2026-04-24 01:24 21.49850 -106.74889 36924 ft 490 kts 117°
2026-04-24 01:24 21.46846 -106.68326 36923 ft 490 kts 117°
2026-04-24 01:25 21.43837 -106.61761 36927 ft 490 kts 117°
2026-04-24 01:25 21.40827 -106.55201 36926 ft 490 kts 117°
2026-04-24 01:26 21.37809 -106.48631 36921 ft 490 kts 117°
2026-04-24 01:26 21.34784 -106.42055 36921 ft 491 kts 117°
2026-04-24 01:27 21.31780 -106.35530 36925 ft 491 kts 117°
2026-04-24 01:27 21.28700 -106.29000 36920 ft 490 kts 120°
2026-04-24 01:28 21.25199 -106.22721 36925 ft 489 kts 123°
2026-04-24 01:28 21.21612 -106.16525 36921 ft 489 kts 122°
2026-04-24 01:29 21.18099 -106.10342 36921 ft 489 kts 122°
2026-04-24 01:29 21.14590 -106.04101 36923 ft 488 kts 122°
2026-04-24 01:30 21.11149 -105.97985 36922 ft 488 kts 122°
2026-04-24 01:30 21.07624 -105.91736 36927 ft 488 kts 122°
2026-04-24 01:31 21.04127 -105.85543 36924 ft 488 kts 122°
2026-04-24 01:31 21.00610 -105.79318 36924 ft 488 kts 122°
2026-04-24 01:32 20.97105 -105.73118 36918 ft 488 kts 122°
2026-04-24 01:32 20.93590 -105.66909 36921 ft 487 kts 122°
2026-04-24 01:33 20.90077 -105.60708 36922 ft 487 kts 122°
2026-04-24 01:33 20.86580 -105.54543 36927 ft 487 kts 122°
2026-04-24 01:34 20.83062 -105.48337 36932 ft 487 kts 122°
2026-04-24 01:34 20.79551 -105.42137 36943 ft 488 kts 122°
2026-04-24 01:35 20.76036 -105.35937 36938 ft 488 kts 122°
2026-04-24 01:35 20.72519 -105.29741 36946 ft 488 kts 122°
2026-04-24 01:36 20.69571 -105.23239 36952 ft 488 kts 107°
2026-04-24 01:36 20.68411 -105.16129 36961 ft 486 kts 94°
2026-04-24 01:37 20.67902 -105.08956 36948 ft 487 kts 93°
2026-04-24 01:37 20.67368 -105.01744 36960 ft 488 kts 94°
2026-04-24 01:38 20.66792 -104.94633 36973 ft 488 kts 94°
2026-04-24 01:38 20.66185 -104.87403 36982 ft 488 kts 94°
2026-04-24 01:39 20.65577 -104.80187 36978 ft 488 kts 94°
2026-04-24 01:39 20.64968 -104.72976 36991 ft 487 kts 94°
2026-04-24 01:40 20.64362 -104.65811 36996 ft 487 kts 94°
2026-04-24 01:40 20.63747 -104.58605 36985 ft 487 kts 94°
2026-04-24 01:41 20.63132 -104.51392 36982 ft 487 kts 94°
2026-04-24 01:41 20.62511 -104.44178 36973 ft 488 kts 94°
2026-04-24 01:42 20.61861 -104.36968 36966 ft 488 kts 95°
2026-04-24 01:42 20.61204 -104.29755 36944 ft 488 kts 95°
2026-04-24 01:43 20.60566 -104.22584 36951 ft 488 kts 94°
2026-04-24 01:43 20.59948 -104.15374 36931 ft 488 kts 94°
2026-04-24 01:44 20.59326 -104.08156 36933 ft 488 kts 94°
2026-04-24 01:44 20.58696 -104.00935 36908 ft 488 kts 94°
2026-04-24 01:45 20.58072 -103.93821 36915 ft 488 kts 94°
2026-04-24 01:45 20.57426 -103.86607 36892 ft 488 kts 94°
2026-04-24 01:46 20.56769 -103.79441 36890 ft 488 kts 94°
2026-04-24 01:46 20.56108 -103.72232 36878 ft 488 kts 94°
2026-04-24 01:47 20.55446 -103.65030 36911 ft 487 kts 94°
2026-04-24 01:47 20.54782 -103.57832 36963 ft 487 kts 94°
2026-04-24 01:48 20.54116 -103.50639 37031 ft 487 kts 94°
2026-04-24 01:48 20.53447 -103.43454 37091 ft 487 kts 94°
2026-04-24 01:49 20.52774 -103.36250 37121 ft 487 kts 94°
2026-04-24 01:49 20.52254 -103.29089 37114 ft 486 kts 88°
2026-04-24 01:50 20.52528 -103.21890 37123 ft 485 kts 85°
2026-04-24 01:50 20.52848 -103.15883 37063 ft 486 kts 85°
2026-04-24 01:50 20.53069 -103.11112 36832 ft 487 kts 85°
2026-04-24 01:51 20.53216 -103.07500 36826 ft 487 kts 85°
2026-04-24 01:51 20.53443 -103.01443 36821 ft 488 kts 86°
2026-04-24 01:52 20.53703 -102.94290 36817 ft 489 kts 86°
2026-04-24 01:52 20.53968 -102.87044 36811 ft 489 kts 86°
2026-04-24 01:53 20.54231 -102.79835 36807 ft 489 kts 86°
2026-04-24 01:53 20.54492 -102.72595 36807 ft 489 kts 85°
2026-04-24 01:54 20.54754 -102.65334 36814 ft 489 kts 86°
2026-04-24 01:54 20.55013 -102.58071 36800 ft 489 kts 86°
2026-04-24 01:55 20.55268 -102.50815 36805 ft 489 kts 86°
2026-04-24 01:55 20.55521 -102.43552 36798 ft 489 kts 86°
2026-04-24 01:56 20.55768 -102.36342 36791 ft 489 kts 85°
2026-04-24 01:56 20.56015 -102.29077 36778 ft 490 kts 85°
2026-04-24 01:57 20.56258 -102.21813 36784 ft 490 kts 86°
2026-04-24 01:57 20.56499 -102.14544 36768 ft 490 kts 86°
2026-04-24 01:58 20.56737 -102.07271 36771 ft 490 kts 85°
2026-04-24 01:58 20.56970 -101.99999 36775 ft 490 kts 85°
2026-04-24 01:59 20.57197 -101.92851 36770 ft 490 kts 86°
2026-04-24 01:59 20.57425 -101.85580 36760 ft 490 kts 86°
2026-04-24 02:00 20.57649 -101.78361 36749 ft 490 kts 86°
2026-04-24 02:00 20.57870 -101.71097 36749 ft 490 kts 86°
2026-04-24 02:01 20.58089 -101.63827 36747 ft 490 kts 85°
2026-04-24 02:01 20.57801 -101.56560 36715 ft 493 kts 99°